Regional Weather Roundup
Issued by NWS

Home | Current Version | Previous Version | Graphics & Text | Print | Product List | Glossary On
Versions: 1 2 3 4 5 6 7 8 9 10 11 12 13 14 15 16 17 18 19 20 21 22 23 24 25 26 27 28 29 30 31 32 33 34 35 36 37 38 39 40 41 42 43 44 45 46 47 48 49 50
000
ASUS43 KFSD 250810
RWRSD

WEATHER ROUNDUP FOR SOUTH DAKOTA
NATIONAL WEATHER SERVICE SIOUX FALLS SD
300 AM CDT TUE JUL 25 2017

NOTE: "FAIR" INDICATES FEW OR NO CLOUDS BELOW 12,000 FEET WITH NO
SIGNIFICANT WEATHER AND/OR OBSTRUCTIONS TO VISIBILITY.


SDZ001>005-009-010-012>017-250900-
NORTHWEST AND NORTH CENTRAL SOUTH DAKOTA

CITY           SKY/WX    TMP DP  RH WIND       PRES   REMARKS
BUFFALO          N/A     74  60  61 W5        29.87R
FAITH            N/A     67  65  93 CALM      29.85R
MOBRIDGE       CLEAR     69  65  86 E8        29.79S
$$

SDZ012>016-024>037-041>051-057-063-072>074-250900-
SOUTHWEST AND SOUTH CENTRAL SOUTH DAKOTA

CITY           SKY/WX    TMP DP  RH WIND       PRES   REMARKS
RAPID CTY ARPT CLEAR     67  55  65 NW7       29.85F
PIERRE         CLEAR     78  64  61 SW6       29.77F
CUSTER         CLEAR     66  45  46 VRB6      30.05F
ELLSWORTH AFB  CLEAR     74  54  50 W7        29.85F
PHILIP         CLEAR     74  58  57 VRB3      29.80F
PINE RIDGE     PTCLDY    79  56  45 S13       29.88F
SPEARFISH      FAIR      82  52  34 S15G23    29.90S
WINNER         FAIR      79  69  71 S25G32    29.82S
$$

SDZ004>011-016>023-039-040-250900-
NORTHEAST SOUTH DAKOTA

CITY           SKY/WX    TMP DP  RH WIND       PRES   REMARKS
ABERDEEN       CLEAR     70  66  87 SE12      29.83F
WATERTOWN      PTCLDY    69  64  84 SE15G23   29.89F
BROOKINGS      CLOUDY    69  64  84 SE20G25   29.92F
SISSETON         N/A     67  66  97 S9        29.87F
$$

SDZ017-020-022-023-036>040-048>070-250900-
SOUTHEAST SOUTH DAKOTA

CITY           SKY/WX    TMP DP  RH WIND       PRES   REMARKS
SIOUX FALLS    CLEAR     71  67  87 SE8       29.93F
HURON          CLEAR     71  67  87 MISG      29.83F
CHAMBERLAIN    CLEAR     82  71  69 SW18      29.80S
MITCHELL       CLEAR     75  68  78 SE16      29.84S
YANKTON        PTCLDY    73  67  81 SE8       29.90R
$$

ABBREVIATIONS USED IN REMARKS
   TC - TEMPERATURE IN CELSIUS
  WCI - WIND CHILL INDEX
   HX - HEAT INDEX
  VSB - VISIBILITY




USA.gov is the U.S. government's official web portal to all federal, state and local government web resources and services.